Content
SEND FEEDBACK

Daily
Averages
Monthly
Summary
United States of America

CRYSTAL RIVER, FLORIDA


Home > North America > United States > Florida
Elevation: 7 feet     Latitude: 28 52N     Longitude: 082 35W

WEATHER
 
SELECT A DAY
Number of Records: 119,420;   Date Range: 8/12/09 - 10/19/14
 
SHARE

PRINT THIS DATA

[ ← Previous Day ]
WEATHER ALMANAC - JANUARY 31, 2013
[ Next Day → ]
[ °C ]   °F
Weather ElementAverageHighLow
Temperature52.9 °F60.8 °F (1:35 pm)37.4 °F (11:15 pm)
Dewpoint39.4 °F55.4 °F (12:55 am)28.4 °F (1:15 pm)
Humidity63.2 %100 % (12:55 am)31 % (1:15 pm)
Barometer30.15 in30.27 in (10:35 pm)29.97 in (12:55 am)
Wind Speed5.4 mph12.7 mph (2:35 pm)
Wind Gust18.4 mph (1:55 pm)
Weather ElementAverage
Visibility9.8 mi
Wind DirectionSW (219.4 °)

Weather ElementTotal
Precipitation0.11 in
Heating Degree Days15.9 (Base 65)
Averaged from 70 records on January 31, 2013
WEATHER CONDITIONS BREAKOUT
WIND DIRECTION BREAKOUT
WEATHER BY HOUR - JANUARY 31, 2013
[ °C ]   °F
Local TimeTemperatureDewpointHumidityBarometerVisibilityWind DirectionWind SpeedGust SpeedPrecipitationEventsConditions
12:35 AM55.4 °F53.6 °F94 %29.98 in5.0 miCalm0.03 inRainHeavy Rain
12:55 AM55.4 °F55.4 °F100 %29.97 in5.0 miCalm0.04 inRainRain
1:15 AM55.4 °F55.4 °F100 %29.97 in7.0 miCalm0.01 inRainRain
1:35 AM55.4 °F55.4 °F100 %29.98 in10.0 miCalm0.01 inLight Drizzle
1:55 AM55.4 °F55.4 °F100 %29.98 in10.0 miCalm0.02 inRainRain
2:15 AM55.4 °F55.4 °F100 %29.99 in10.0 miCalmOvercast
2:35 AM55.4 °F55.4 °F100 %30.00 in10.0 miCalmOvercast
2:55 AM55.4 °F55.4 °F100 %30.00 in10.0 miCalmOvercast
3:15 AM55.4 °F55.4 °F100 %30.00 in10.0 miCalmOvercast
3:35 AM57.2 °F53.6 °F88 %30.00 in10.0 miWNW (300°)6.9 mphOvercast
3:55 AM57.2 °F51.8 °F82 %30.01 in10.0 miWNW (300°)4.6 mphOvercast
4:15 AM59.0 °F51.8 °F77 %30.01 in10.0 miWNW (300°)5.8 mphOvercast
4:35 AM59.0 °F51.8 °F77 %30.01 in10.0 miWNW (300°)6.9 mphOvercast
4:55 AM59.0 °F50.0 °F72 %30.02 in10.0 miWNW (290°)8.1 mphMostly Cloudy
5:15 AM57.2 °F48.2 °F72 %30.02 in10.0 miWNW (300°)8.1 mphScattered Clouds
5:35 AM55.4 °F44.6 °F67 %30.04 in10.0 miNW (310°)9.2 mphClear
5:55 AM55.4 °F46.4 °F72 %30.05 in10.0 miNNW (330°)8.1 mphScattered Clouds
6:15 AM53.6 °F46.4 °F77 %30.07 in10.0 miNW (320°)6.9 mphScattered Clouds
6:35 AM53.6 °F44.6 °F72 %30.09 in10.0 miNNW (330°)6.9 mphClear
6:55 AM51.8 °F44.6 °F76 %30.09 in10.0 miNorth (350°)4.6 mphClear
7:15 AM51.8 °F44.6 °F76 %30.10 in10.0 miNorth (350°)8.1 mphClear
7:55 AM50.0 °F37.4 °F62 %30.13 in10.0 miNNW (340°)10.4 mphClear
8:15 AM50.0 °F37.4 °F62 %30.14 in10.0 miNNW (330°)6.9 mphClear
8:35 AM50.0 °F37.4 °F62 %30.15 in10.0 miNNW (340°)8.1 mphClear
8:55 AM50.0 °F37.4 °F62 %30.16 in10.0 miNNW (330°)9.2 mphClear
9:15 AM50.0 °F35.6 °F58 %30.17 in10.0 miNW (310°)6.9 mphClear
9:35 AM50.0 °F33.8 °F54 %30.19 in10.0 miNNW (330°)9.2 mphClear
9:55 AM51.8 °F32.0 °F47 %30.19 in10.0 miNNW (340°)10.4 mph16.1 mphClear
10:15 AM51.8 °F32.0 °F47 %30.20 in10.0 miNNW (340°)8.1 mphClear
10:35 AM51.8 °F32.0 °F47 %30.20 in10.0 miNorth (10°)9.2 mph17.3 mphClear
10:55 AM53.6 °F32.0 °F44 %30.20 in10.0 miNNW (330°)6.9 mphClear
11:15 AM53.6 °F32.0 °F44 %30.20 in10.0 miNNW (330°)8.1 mphClear
11:35 AM53.6 °F32.0 °F44 %30.20 in10.0 miNW (310°)5.8 mphClear
11:55 AM55.4 °F32.0 °F41 %30.19 in10.0 miNW (320°)4.6 mphClear
12:15 PM55.4 °F30.2 °F38 %30.19 in10.0 miNNW (330°)6.9 mphClear
12:35 PM59.0 °F30.2 °F34 %30.19 in10.0 miNW (320°)6.9 mphClear
12:55 PM59.0 °F30.2 °F34 %30.18 in10.0 miNorth (350°)8.1 mphClear
1:15 PM59.0 °F28.4 °F31 %30.17 in10.0 miWNW (300°)8.1 mphClear
1:35 PM60.8 °F30.2 °F31 %30.17 in10.0 miCalmClear
1:55 PM59.0 °F32.0 °F36 %30.17 in10.0 miWest (270°)10.4 mph18.4 mphClear
2:15 PM59.0 °F32.0 °F36 %30.17 in10.0 miWNW (290°)9.2 mphClear
2:35 PM59.0 °F32.0 °F36 %30.17 in10.0 miWest (270°)12.7 mph18.4 mphClear
2:55 PM59.0 °F33.8 °F39 %30.18 in10.0 miWest (280°)12.7 mph18.4 mphClear
3:15 PM59.0 °F33.8 °F39 %30.18 in10.0 miWest (270°)12.7 mph18.4 mphClear
3:35 PM59.0 °F33.8 °F39 %30.18 in10.0 miWest (280°)11.5 mph17.3 mphClear
3:55 PM59.0 °F35.6 °F42 %30.17 in10.0 miWNW (290°)9.2 mph18.4 mphClear
4:15 PM57.2 °F35.6 °F44 %30.18 in10.0 miWNW (290°)10.4 mph17.3 mphClear
4:35 PM55.4 °F35.6 °F47 %30.17 in10.0 miWest (270°)9.2 mph16.1 mphClear
4:55 PM55.4 °F35.6 °F47 %30.18 in10.0 miWest (280°)9.2 mphClear
5:15 PM55.4 °F35.6 °F47 %30.18 in10.0 miWest (270°)9.2 mphClear
5:35 PM53.6 °F35.6 °F51 %30.19 in10.0 miWest (270°)8.1 mphClear
5:55 PM53.6 °F37.4 °F54 %30.18 in10.0 miWest (270°)5.8 mphClear
6:15 PM51.8 °F37.4 °F58 %30.19 in10.0 miCalmClear
6:35 PM51.8 °F37.4 °F58 %30.19 in10.0 miCalmClear
6:55 PM48.2 °F37.4 °F66 %30.20 in10.0 miCalmClear
7:15 PM46.4 °F37.4 °F71 %30.21 in10.0 miCalmClear
7:35 PM51.8 °F37.4 °F58 %30.22 in10.0 miNNW (330°)3.5 mphClear
7:55 PM50.0 °F37.4 °F62 %30.22 in10.0 miNNW (330°)3.5 mphClear
8:15 PM50.0 °F37.4 °F62 %30.23 in10.0 miNNW (340°)3.5 mphClear
8:35 PM48.2 °F35.6 °F62 %30.24 in10.0 miNNW (340°)3.5 mphClear
8:55 PM46.4 °F35.6 °F66 %30.25 in10.0 miNorth (350°)3.5 mphClear
9:15 PM46.4 °F35.6 °F66 %30.25 in10.0 miNorth (350°)4.6 mphClear
9:35 PM44.6 °F35.6 °F71 %30.25 in10.0 miCalmClear
9:55 PM44.6 °F33.8 °F66 %30.25 in10.0 miCalmClear
10:15 PM44.6 °F33.8 °F66 %30.26 in10.0 miNNW (340°)3.5 mphClear
10:35 PM44.6 °F33.8 °F66 %30.27 in10.0 miNNW (340°)3.5 mphClear
10:55 PM41.0 °F33.8 °F76 %30.26 in10.0 miCalmClear
11:15 PM37.4 °F33.8 °F87 %30.27 in10.0 miCalmClear
11:35 PM41.0 °F33.8 °F76 %30.27 in10.0 miCalmClear
11:55 PM37.4 °F33.8 °F87 %30.27 in10.0 miCalmClear
Hourly data recorded from KCGC, located miles away from Crystal River, Florida







STORIES FROM OUR PARTNERS